Weather History for Las Vegas, NM

Change the Weather History Date:

Friday, December 28, 2012

  Actual Average Record
Temperature  
Mean Temperature 21 °F -  
Max Temperature 32 °F 41 °F 64 °F (2005)
Min Temperature 10 °F 16 °F -4 °F (1966)
Degree Days  
Heating Degree Days 44    
Moisture  
Dew Point 9 °F    
Average Humidity 73    
Maximum Humidity 96    
Minimum Humidity 33    
Precipitation  
Precipitation 0.00 in - - ()
Sea Level Pressure  
Sea Level Pressure 29.95 in    
Wind  
Wind Speed 6 mph (ENE)    
Max Wind Speed 13 mph    
Max Gust Speed -    
Visibility 6 miles    
Events Fog    
Averages and records for this station are not official NWS values.
T = Trace of Precipitation, MM = Missing Value Source: NWS Daily Summary

Daily Weather History Graph

Daily Weather History Graph

Search for Another Location

Airport:

Trip Planner

Search our weather history database for the weather conditions in past years. The results will help you decide how hot, cold, wet, or windy it might be!

Date:

Astronomy

Dec. 28, 2012 Rise Set
Actual Time 7:09 AM MST 4:55 PM MST
Civil Twilight 6:41 AM MST 5:23 PM MST
Nautical Twilight 6:09 AM MST 5:55 PM MST
Astronomical Twilight 5:38 AM MST 6:26 PM MST
Moon 5:32 PM MST (12/28) 7:07 AM MST (12/28)
Length of Visible Light 10h 42m
Length of Day
9h 46m
Full, 100% of the Moon is Illuminated
Dec 28
Full
Jan 4
Last Quarter
Jan 11
New
Jan 18
First Quarter
Jan 26
Full

Hourly Weather History & Observations

Time (MST) Temp. Windchill Dew Point Humidity Pressure Visibility Wind Dir Wind Speed Gust Speed Precip Events Conditions
12:53 AM 16.0 °F 4.4 °F 3.9 °F 59% 29.79 in 10.0 mi NE 9.2 mph - N/A   Clear
1:53 AM 16.0 °F 2.3 °F 5.0 °F 62% 29.81 in 10.0 mi NE 12.7 mph - N/A   Clear
2:53 AM 10.9 °F -1.8 °F 8.1 °F 88% 29.85 in 10.0 mi East 9.2 mph - N/A   Clear
3:26 AM 10.4 °F -2.4 °F 8.6 °F 92% 29.83 in 2.5 mi ENE 9.2 mph - N/A   Mostly Cloudy
3:34 AM 12.2 °F 4.3 °F 10.4 °F 92% 29.83 in 1.0 mi Variable 4.6 mph - N/A   Mist
3:41 AM 12.2 °F 4.3 °F 10.4 °F 92% 29.83 in 0.5 mi ESE 4.6 mph - N/A Fog Light Freezing Fog
3:49 AM 12.2 °F 4.3 °F 10.4 °F 92% 29.83 in 0.2 mi East 4.6 mph - N/A Fog Light Freezing Fog
3:53 AM 12.0 °F 4.1 °F 10.9 °F 95% 29.88 in 0.2 mi SE 4.6 mph - N/A Fog Light Freezing Fog
4:53 AM 10.9 °F 1.4 °F 10.0 °F 96% 29.90 in 0.2 mi NE 5.8 mph - N/A Fog Light Freezing Fog
5:53 AM 12.0 °F 4.1 °F 10.0 °F 92% 29.93 in 0.2 mi NNE 4.6 mph - N/A Fog Light Freezing Fog
6:53 AM 12.0 °F 4.1 °F 9.0 °F 88% 29.96 in 0.2 mi North 4.6 mph - N/A Fog Light Freezing Fog
7:53 AM 10.0 °F - 7.0 °F 87% 29.98 in 0.2 mi Calm Calm - N/A Fog Light Freezing Fog
8:04 AM 10.4 °F - 8.6 °F 92% 29.88 in 1.0 mi Calm Calm - N/A   Mist
8:14 AM 12.2 °F - 8.6 °F 85% 29.88 in 3.0 mi Calm Calm - N/A   Mostly Cloudy
8:25 AM 15.8 °F 10.2 °F 10.4 °F 79% 29.89 in 9.0 mi NE 3.5 mph - N/A   Scattered Clouds
8:33 AM 12.2 °F 4.3 °F 8.6 °F 85% 29.89 in 1.8 mi ENE 4.6 mph - N/A   Scattered Clouds
8:47 AM 12.2 °F - 10.4 °F 92% 29.91 in 0.8 mi Calm Calm - N/A   Mist
8:48 AM 12.9 °F - 10.0 °F 88% 30.02 in 0.8 mi Calm Calm - N/A   Mist
8:56 AM 14.0 °F - 12.2 °F 93% 29.91 in 2.0 mi Calm Calm - N/A   Mostly Cloudy
9:00 AM 15.8 °F - 12.2 °F 86% 29.91 in 7.0 mi Calm Calm - N/A   Scattered Clouds
9:53 AM 24.1 °F 19.7 °F 18.0 °F 77% 29.99 in 10.0 mi NE 3.5 mph - N/A   Clear
10:53 AM 26.1 °F 20.5 °F 10.0 °F 51% 29.98 in 10.0 mi NNE 4.6 mph - N/A   Clear
11:53 AM 28.9 °F 23.9 °F 6.1 °F 38% 29.94 in 10.0 mi ESE 4.6 mph - N/A   Clear
12:53 PM 30.9 °F 26.2 °F 5.0 °F 33% 29.92 in 10.0 mi ENE 4.6 mph - N/A   Clear
1:53 PM 32.0 °F 27.5 °F 6.1 °F 34% 29.92 in 10.0 mi East 4.6 mph - N/A   Clear
2:53 PM 32.0 °F 25.6 °F 10.0 °F 40% 29.96 in 10.0 mi South 6.9 mph - N/A   Clear
3:53 PM 30.9 °F 24.3 °F 9.0 °F 40% 29.98 in 10.0 mi SSE 6.9 mph - N/A   Clear
4:53 PM 26.1 °F 18.4 °F 10.9 °F 53% 30.04 in 10.0 mi SSE 6.9 mph - N/A   Clear
6:53 PM 19.9 °F 10.1 °F 9.0 °F 62% 30.15 in 10.0 mi NE 8.1 mph - N/A   Clear
7:53 PM 18.0 °F 8.7 °F 7.0 °F 62% 30.19 in 10.0 mi NNE 6.9 mph - N/A   Clear
9:53 PM 17.1 °F 7.6 °F 6.1 °F 62% 30.16 in 10.0 mi NNW 6.9 mph - N/A   Clear
10:53 PM 12.9 °F - 5.0 °F 71% 30.18 in 10.0 mi Calm Calm - N/A   Clear
11:53 PM 16.0 °F - 6.1 °F 65% 30.17 in 10.0 mi Calm Calm - N/A   Clear